Theta_e
363 356 352 355 350 351 349 353 361 361 361 359 354 351 348 342 341 342 339 338 340 343
360 358 352 355 357 353 356 355 358 362 357 356 351 347 348 341 343 341 340 341 339 339
355 360 357 357 356 355 359 362 362 357 356 352 348 346 347 344 341 340 339 338 335 334
349 352 355 351 349 360 365 362 358 355 352 348 347 347 348 346 340 338 337 336 332 328
344 352 350 349 353 358 360 360 357 354 349 348 346 345 343 339 337 336 333 330 326 323
349 343 341 341 347 354 357 358 355 352 348 344 342 341 339 336 334 332 329 326 323 321
355 353 346 337 347 352 357 357 354 351 346 343 341 337 334 332 329 327 324 322 320 318
355 353 354 349 353 355 355 353 350 348 344 339 336 331 330 328 327 323 320 319 318 315
350 353 351 350 354 351 348 347 346 341 336 332 328 307 313 322 323 320 318 316 312 311
350 347 349 351 347 341 342 343 338 334 329 327 320 305 306 311 321 320 319 318 317 313
345 342 345 341 338 338 338 335 332 330 324 319 313 303 303 308 321 319 319 318 316 315
336 334 336 331 332 332 332 331 328 324 320 315 313 302 303 313 318 316 314 310 304 312
328 326 326 326 326 330 329 326 323 319 317 310 312 297 298 309 314 312 309 308 304 294
323 322 322 323 324 325 323 322 319 315 314 312 310 304 297 298 314 310 308 306 303 297
Wind_Speed
20 15 14 16 14 13 13 13 16 14 14 15 15 14 13 10 9 9 7 6 4 2
21 21 18 20 15 13 12 13 18 16 17 15 16 15 13 8 8 9 6 4 3 3
20 20 17 17 16 16 14 16 18 16 16 16 15 14 12 11 11 9 7 5 5 4
11 18 18 18 17 18 17 19 19 19 19 18 16 13 10 10 12 10 8 8 6 5
11 10 7 13 12 19 19 18 19 18 19 18 16 14 12 12 11 10 10 8 7 5
21 20 19 8 11 13 20 19 19 19 19 17 15 13 13 12 12 11 10 9 7 5
19 21 18 19 22 27 21 19 19 18 17 16 14 14 13 13 13 12 10 8 6 4
17 19 21 20 18 16 17 17 19 17 16 15 14 12 15 13 13 12 11 10 7 9
19 22 20 19 21 18 16 15 16 17 17 16 11 14 13 14 13 12 11 10 10 8
19 18 20 19 19 16 17 16 16 16 17 14 15 15 14 14 12 11 9 9 8 7
18 14 17 17 17 17 17 16 15 16 17 17 12 15 14 13 13 11 9 7 5 8
16 14 16 17 17 16 17 16 15 16 18 18 16 14 13 13 13 12 11 11 11 8
16 16 15 17 17 16 15 16 16 17 17 18 18 13 12 4 10 11 9 9 9 17
15 17 16 16 15 17 16 16 17 18 16 18 15 12 12 13 10 9 8 8 8 7
Wind_Direction
198 195 188 185 178 178 174 172 158 173 151 159 163 158 168 175 180 168 180 167 249 183
199 195 194 175 179 177 167 162 158 169 153 162 170 168 171 154 156 142 158 146 126 220
200 198 194 169 175 171 151 150 158 157 161 169 171 174 172 148 143 159 167 153 144 153
201 179 188 175 173 161 153 153 161 165 171 174 172 167 176 156 154 158 147 143 141 124
158 226 199 173 163 151 146 159 168 172 174 174 168 163 155 157 153 151 144 134 141 144
182 167 239 146 165 174 155 167 169 169 170 166 159 153 152 150 147 146 138 141 145 145
179 165 184 169 197 189 159 161 164 166 164 152 155 153 148 145 146 134 125 123 121 143
173 162 169 165 169 181 153 159 161 155 149 149 153 150 151 143 134 125 125 118 118 70
161 164 160 163 163 160 159 149 139 147 146 140 156 112 116 132 130 129 127 122 113 132
139 156 160 160 153 141 139 136 142 141 138 134 116 110 119 123 125 128 131 137 147 155
144 142 142 141 141 136 131 136 135 138 126 127 118 112 114 115 122 123 122 119 116 92
138 139 139 134 132 127 130 133 130 128 130 130 120 111 119 125 128 122 123 74 34 109
126 129 133 128 127 130 129 126 128 127 127 122 121 58 48 107 126 129 115 111 86 57
118 123 124 126 131 126 130 124 124 119 123 126 122 74 53 27 133 133 145 132 124 86